This is the latest recevied weather packets stored in our database for station/object WX1N. If no packets are shown the sender has not sent any weather packets the latest 10 day(s).
| Time | Temp. | Humidity | Pressure | Rain* | Wind** | Luminosity | Snow |
|---|---|---|---|---|---|---|---|
| 1778329804 | 5.56° C | 88% | 1013.1 hPa | 0 mm | - | - | - |
| 1778329504 | 5° C | 88% | 1013.2 hPa | 0 mm | - | - | - |
| 1778329204 | 5° C | 88% | 1013.3 hPa | 0 mm | - | - | - |
| 1778328904 | 4.44° C | 87% | 1013.3 hPa | 0 mm | - | - | - |
| 1778328603 | 4.44° C | 86% | 1013.5 hPa | 0 mm | - | - | - |
| 1778328304 | 3.89° C | 85% | 1013.5 hPa | 0 mm | - | - | - |
| 1778328003 | 3.89° C | 82% | 1013.5 hPa | 0 mm | - | - | - |
| 1778327704 | 3.89° C | 82% | 1013.5 hPa | 0 mm | - | - | - |
| 1778327404 | 3.33° C | 82% | 1013.6 hPa | 0 mm | - | - | - |
| 1778327103 | 3.33° C | 81% | 1013.5 hPa | 0 mm | - | - | - |
| 1778326503 | 3.33° C | 79% | 1013.6 hPa | 0 mm | - | - | - |
| 1778326204 | 2.78° C | 79% | 1013.7 hPa | 0 mm | - | - | - |
| 1778325903 | 2.78° C | 79% | 1013.8 hPa | 0 mm | - | - | - |
| 1778325604 | 2.22° C | 80% | 1013.7 hPa | 0 mm | - | - | - |
| 1778325304 | 2.22° C | 79% | 1013.6 hPa | 0 mm | - | - | - |
| 1778325004 | 2.22° C | 79% | 1013.6 hPa | 0 mm | - | - | - |
| 1778324704 | 2.22° C | 80% | 1013.6 hPa | 0 mm | - | - | - |
| 1778324403 | 1.67° C | 80% | 1013.6 hPa | 0 mm | - | - | - |
| 1778324104 | 1.67° C | 80% | 1013.7 hPa | 0 mm | - | - | - |
| 1778323803 | 1.67° C | 80% | 1013.7 hPa | 0 mm | - | - | - |
| 1778323504 | 1.11° C | 80% | 1013.6 hPa | 0 mm | - | - | - |
| 1778323204 | 1.11° C | 81% | 1013.7 hPa | 0 mm | - | - | - |
| 1778322903 | 1.11° C | 81% | 1013.6 hPa | 0 mm | - | - | - |
| 1778322604 | 0.56° C | 81% | 1013.6 hPa | 0 mm | - | - | - |
| 1778322303 | 0.56° C | 81% | 1013.5 hPa | 0 mm | - | - | - |
* Rain latest hour (hover to see other rain measurements)
** Current wind speed in m/s (hover to see current wind gust speed)